Capitol Logistics 457


KMSP
Minneapolis-St Paul International Airport
Minneapolis, Minnesota, US
KEWR
Newark Liberty International Airport
Newark, New Jersey, US

Activity Log

Date Flight Route Aircraft Duration
10/28/2019 CPX457 WLSTN7 GRB KEEHO J584 SLT FQM3 B738 3h 00m
07/19/2019 CPX457 ZMBRO7 ODI KG78K KG72M EVOTE NELLS KEEHO J584 SLT FQM3 B738 2h 29m

Route Details

Aircraft Information
Primary: Boeing 737-800BCF
Backup: Not Available
Route Data
Distance: 875nm
Sched. Duration: 2h 39m
Avg. Duration: 2h 64m (+25m)
Times Flown: 2
Recm'd Route: WLSTN7 GRB KEEHO J584 SLT FQM3
Planned Altitude: 35,000ft
Origin Wx: KMSP 310553Z 06005KT 10SM CLR 06/M03 A3020 RMK AO2 SLP233 T00561028 10133 20056 401561011 58003
Dest. Wx: KEWR 310551Z 10003KT 7SM -RA FEW010 BKN014 OVC020 07/06 A2998 RMK AO2 SLP151 P0003 60010 T00720061 10078 20072 58001
Notes:

Financial History
Total Freight: 28,512lbs
Average Load: 14,256lbs/flt
Fuel Used: 20,948lbs
Avg. Fuel Used: 10,474lbs/flt
Fuel Expense: $25,347
Avg. Fuel Expense: $12,674
Avg. Fuel Cost: $1.21/lbs
Total Gross Income: $36,780
Pilot Pay: $458
Total Expenses: $4,076
Total Revenue: $6,007
Average Revenue: $18,390.24